Terminal Aerodrome Forecast
Issued by NWS

Home | Current Version | Previous Version | Text Only | Print | Product List | Glossary On
Versions: 1 2 3 4 5 6 7 8 9 10 11 12 13 14 15 16 17 18 19 20 21 22 23 24 25 26 27 28 29 30 31 32
000
FTUS45 KGJT 100536
TAFEGE
TAF
KEGE 100536Z 1006/1106 09005KT P6SM SCT090 BKN180
     FM101000 VRB03KT P6SM SCT090 BKN180
     FM101800 24010G17KT P6SM VCTS SCT090CB BKN180
     FM110200 16006KT P6SM VCSH SCT070 OVC100
      AMD LTD TO CLD VIS AND WIND TIL 101300=

USA.gov is the U.S. government's official web portal to all federal, state and local government web resources and services.